Flag for U.S.A. Weather past 2 weeks in Paramus, New Jersey, U.S.A.

Now
83 °F

Sunny.


Feels Like: 84 °F
Forecast: 72 / 84 °F
Wind: 15 mph from Southwest

Location: Teterboro Airport

Current Time: Jul 1, 2015 at 3:30:01 PM

Latest Report: Jul 1, 2015 at 2:51 PM


Visibility: 10 mi

Pressure: 29.75 "Hg

Humidity: 50%

Dew point: 62 °F

Location of ParamusLocation

Historic Weather in Paramus — Graph

°F

Paramus temperature yesterday

Maximum temperature yesterday: 83 °F (at 2:51 PM)
Minimum temperature yesterday: 64 °F (at 4:51 AM)
Average temperature yesterday: 75 °F

Past Weeks' High & Low Weather Summary

 TemperatureHumidityPressure
High91 °F (Jun 23, 2:51 PM)94% (Jun 20, 8:58 PM)30.12 "Hg (Jun 20, 8:58 PM)
Low60 °F (Jun 27, 8:51 PM)31% (Jun 25, 12:51 PM)29.65 "Hg (Jun 28, 10:51 AM)
Average74 °F64%29.92 "Hg
* Reported Jun 16 1:00 PM — Jul 1 1:51 PM, Paramus, Weather by CustomWeather, © 2015

Note: Actual official high and low records may vary slightly from our data, if they occured in-between our weather recording intervals... More about our weather records

Advertising

Paramus weather history for previous 24 hours

 ConditionsComfort  
Time TempWeatherWind HumidityBarometerVisibility
1:51 PM
Wed, Jul 1
81 °FBroken clouds.8 mph53%29.77 "Hg10 mi
12:51 PM80 °FScattered clouds.8 mph54%29.77 "Hg10 mi
11:51 AM78 °FPassing clouds.14 mph58%29.78 "Hg10 mi
10:51 AM76 °FScattered clouds.9 mph64%29.78 "Hg10 mi
9:51 AM75 °FPartly sunny.8 mph69%29.78 "Hg10 mi
8:51 AM72 °FPartly sunny.7 mph78%29.77 "Hg10 mi
7:51 AM71 °FSunny.12 mph84%29.77 "Hg9 mi
6:51 AM70 °FPassing clouds.No wind90%29.76 "Hg8 mi
5:51 AM69 °FOvercast.No wind93%29.75 "Hg9 mi
4:51 AM70 °FLight rain. Mostly cloudy.7 mph87%29.75 "Hg9 mi
3:51 AM74 °FPassing clouds.3 mph85%29.74 "Hg10 mi
2:51 AM74 °FOvercast.7 mph85%29.78 "Hg10 mi
1:51 AM74 °FOvercast.8 mph85%29.78 "Hg10 mi
11:51 PM
Tue, Jun 30
74 °FPassing clouds.6 mph82%29.83 "Hg10 mi
10:51 PM75 °FLight rain. Passing clouds.13 mph79%29.84 "Hg10 mi
9:51 PM75 °FLight rain. Passing clouds.13 mph79%29.86 "Hg10 mi
8:51 PM75 °FScattered clouds.12 mph74%29.86 "Hg10 mi
7:51 PM76 °FPartly sunny.14 mph72%29.87 "Hg10 mi
6:51 PM77 °FPassing clouds.14 mph66%29.85 "Hg10 mi
5:51 PM78 °FScattered clouds.15 mph60%29.86 "Hg10 mi
4:51 PM79 °FPassing clouds.16 mph50%29.87 "Hg10 mi
3:51 PM82 °FPassing clouds.14 mph44%29.88 "Hg10 mi
Weather by CustomWeather, © 2015

See weather overviewHow to use our weather pages